sat.trackr.live / text

‹ back to catalog

APRIZESAT 7

NORAD 39416 · 2013-066A

PAYLOAD ACTIVE UNKNOWN

§ Identity

Operator
Country
US
Launch date
2013-11-21
Launch site
DLS
Launch vehicle
Mass (kg)
RCS (m²)
0.11

Purposes: tech_demo

External: N2YO · Heavens-Above · Gunter

§ Orbital elements

Epoch: 2026-09-19T08:02:56.173632Z

Period
96.53 min
Inclination
97.7808°
Eccentricity
0.0034105
Mean motion
14.91754967 rev/d
Perigee alt
568.7 km
Apogee alt
616.2 km
Semi-major
6,970.6 km
B*
8.5233e-5
RAAN
214.2569°
Arg perigee
258.8826°
Mean anomaly
100.8558°
Rev number
69,526

§ Raw data

APRIZESAT 71 39416U 13066A   26262.33537238  .00000809  00000+0  85233-4 0  99922 39416  97.7808 214.2569 0034105 258.8826 100.8558 14.91754967695263

JSON: /api/v1/satellites/39416 · /tle

For live sub-satellite position, see the globe view (requires WebGL).

§ Visibility from observer

Set your observer location to see the next 7 days of passes ≥ 10°. The values pass through the URL so the page stays shareable.

No JS? Fill the form by hand. The geolocation button needs JavaScript.

§ Radio — SatNOGS DB

ModeDescriptionDownlinkUplink
GMSK Store and dump 400.585 MHz

1 transmitter · refreshed weekly from db.satnogs.org